Millington, TN

6:07 PM CDT on May 29, 2017 (GMT -0500)
Millington Municipal

Weather History for KNQA - January, 2014

Change the Weather History Date:

Thursday, January 30, 2014

  Actual Average Record
Temperature  
Mean Temperature 30 °F -  
Max Temperature 44 °F 49 °F 69 °F (2016)
Min Temperature 15 °F 33 °F 15 °F (2014)
Degree Days  
Heating Degree Days 36    
Moisture  
Dew Point 7 °F    
Average Humidity 44    
Maximum Humidity 68    
Minimum Humidity 17    
Precipitation  
Precipitation 0.00 in - - ()
Sea Level Pressure  
Sea Level Pressure 30.18 in    
Wind  
Wind Speed 5 mph (SSE)    
Max Wind Speed 15 mph    
Max Gust Speed -    
Visibility 10 miles    
Events      
Averages and records for this station are not official NWS values.
T = Trace of Precipitation, MM = Missing Value Source: NWS Daily Summary

Daily Weather History Graph

Daily Weather History Graph

Search for Another Location

Airport or City:

Trip Planner

Search our weather history database for the weather conditions in past years. The results will help you decide how hot, cold, wet, or windy it might be!

Date:

Astronomy

Jan. 30, 2014 Rise Set
Actual Time 7:00 AM CST 5:25 PM CST
Civil Twilight 6:33 AM CST 5:52 PM CST
Nautical Twilight 6:03 AM CST 6:22 PM CST
Astronomical Twilight 5:33 AM CST 6:52 PM CST
Moon 6:27 AM CST (1/30) 5:35 PM CST (1/30)
Length of Visible Light 11h 18m
Length of Day
10h 25m
Waning Crescent, 0% of the Moon is Illuminated
Jan 30
Waning Crescent
Jan 30
New
Feb 6
First Quarter
Feb 14
Full
Feb 22
Last Quarter

Hourly Weather History & Observations

Time (CST) Temp. Windchill Dew Point Humidity Pressure Visibility Wind Dir Wind Speed Gust Speed Precip Events Conditions
12:50 AM 19.4 °F 12.8 °F 6.8 °F 58% 30.30 in 10.0 mi SE 4.6 mph - N/A   Clear
1:55 AM 17.6 °F 10.7 °F 6.8 °F 63% 30.38 in 10.0 mi SE 4.6 mph - N/A   Clear
2:15 AM 15.8 °F 10.2 °F 6.8 °F 68% 30.28 in 10.0 mi SE 3.5 mph - N/A   Clear
2:35 AM 17.6 °F 10.7 °F 6.8 °F 63% 30.28 in 10.0 mi ESE 4.6 mph - N/A   Clear
2:55 AM 17.6 °F - 6.8 °F 63% 30.28 in 10.0 mi Calm Calm - N/A   Clear
3:15 AM 15.8 °F 10.2 °F 6.8 °F 68% 30.28 in 10.0 mi SSE 3.5 mph - N/A   Clear
3:35 AM 17.6 °F - 6.8 °F 63% 30.27 in 10.0 mi Calm Calm - N/A   Clear
3:55 AM 17.6 °F 10.7 °F 6.8 °F 63% 30.26 in 10.0 mi SE 4.6 mph - N/A   Clear
4:15 AM 19.4 °F 12.8 °F 6.8 °F 58% 30.25 in 10.0 mi SSE 4.6 mph - N/A   Clear
4:35 AM 21.2 °F 14.9 °F 6.8 °F 54% 30.25 in 10.0 mi SSE 4.6 mph - N/A   Clear
4:55 AM 17.6 °F 10.7 °F 6.8 °F 63% 30.25 in 10.0 mi SE 4.6 mph - N/A   Clear
5:30 AM 17.6 °F 10.7 °F 6.8 °F 63% 30.25 in 10.0 mi ESE 4.6 mph - N/A   Clear
5:50 AM 19.4 °F 10.4 °F 6.8 °F 58% 30.25 in 10.0 mi SE 6.9 mph - N/A   Clear
6:50 AM 19.4 °F 9.5 °F 8.6 °F 63% 30.22 in 10.0 mi SE 8.1 mph - N/A   Scattered Clouds
7:50 AM 21.2 °F 13.6 °F 8.6 °F 58% 30.25 in 10.0 mi SE 5.8 mph - N/A   Mostly Cloudy
8:50 AM 26.6 °F 18.2 °F 10.4 °F 51% 30.25 in 10.0 mi SSE 8.1 mph - N/A   Mostly Cloudy
9:50 AM 28.4 °F 19.1 °F 8.6 °F 43% 30.22 in 10.0 mi SSE 10.4 mph - N/A   Mostly Cloudy
10:50 AM 32.0 °F 22.1 °F 8.6 °F 38% 30.22 in 10.0 mi SSE 13.8 mph - N/A   Mostly Cloudy
11:50 AM 35.6 °F 28.6 °F 6.8 °F 30% 30.18 in 10.0 mi South 9.2 mph - N/A   Mostly Cloudy
12:50 PM 39.2 °F 30.8 °F 6.8 °F 26% 30.09 in 10.0 mi SSE 15.0 mph - N/A   Mostly Cloudy
1:50 PM 42.8 °F 36.6 °F 6.8 °F 23% 30.05 in 10.0 mi SSE 11.5 mph - N/A   Mostly Cloudy
2:50 PM 44.6 °F 38.8 °F 5.0 °F 20% 30.03 in 10.0 mi South 11.5 mph - N/A   Mostly Cloudy
3:50 PM 44.6 °F 40.2 °F 1.4 °F 17% 30.02 in 10.0 mi South 8.1 mph - N/A   Mostly Cloudy
4:55 PM 42.8 °F 37.0 °F 1.4 °F 18% 30.01 in 10.0 mi South 10.4 mph - N/A   Mostly Cloudy
5:50 PM 41.0 °F 37.1 °F 3.2 °F 21% 30.02 in 10.0 mi SSE 5.8 mph - N/A   Mostly Cloudy
6:55 PM 39.2 °F 35.0 °F 3.2 °F 22% 30.04 in 10.0 mi SSE 5.8 mph - N/A   Mostly Cloudy
7:55 PM 37.4 °F - 3.2 °F 24% 30.05 in 10.0 mi Calm Calm - N/A   Mostly Cloudy
8:53 PM 37.4 °F 34.9 °F 5.0 °F 26% 30.07 in 10.0 mi SSE 3.5 mph - N/A   Mostly Cloudy
9:50 PM 37.4 °F 34.9 °F 6.8 °F 28% 30.08 in 10.0 mi SE 3.5 mph - N/A   Overcast
10:50 PM 35.6 °F 32.8 °F 12.2 °F 38% 30.07 in 10.0 mi ESE 3.5 mph - N/A   Overcast
11:50 PM 39.2 °F 35.9 °F 8.6 °F 28% 30.06 in 10.0 mi SE 4.6 mph - N/A   Overcast